Regional Weather Roundup
Issued by NWS

Home | Current Version | Previous Version | Graphics & Text | Print | Product List | Glossary On
Versions: 1 2 3 4 5 6 7 8 9 10 11 12 13 14 15 16 17 18 19 20 21 22 23 24 25 26 27 28 29 30 31 32 33 34 35 36 37 38 39 40 41
000
ASUS45 KCYS 211810
RWRWY

WYOMING REGIONAL WEATHER ROUNDUP
NATIONAL WEATHER SERVICE CHEYENNE WY
1200 PM MDT TUE OCT 21 2014

NOTE:  "FAIR" INDICATES FEW OR NO CLOUDS BELOW 12,000 FEET
WITH NO SIGNIFICANT WEATHER AND/OR OBSTRUCTIONS TO VISIBILITY.

WYZ001-211900-
YELLOWSTONE NATIONAL PARK

CITY           SKY/WX    TMP DP  RH WIND       PRES   REMARKS
LK YELLOWSTONE   N/A     39  36  89 VRB7      30.01R WCI  34
6HR MIN TEMP:  28; 6HR MAX TEMP:  43; 6HR PCP:  0.02;

W YELLOWSTONE  NOT AVBL

$$
WYZ002>013-054>058-071-098>099-211900-
NORTHERN WYOMING

CITY           SKY/WX    TMP DP  RH WIND       PRES   REMARKS
JACKSON        CLOUDY    45  43  93 SW6       29.98R
CODY           CLOUDY   N/A N/A N/A W22G33    29.84R
GREYBULL       PTSUNNY   71  35  26 S13       29.76F
6HR MIN TEMP:  34; 6HR MAX TEMP:  71;

WORLAND        PTSUNNY   72  37  28 SW15G24   29.77F
6HR MIN TEMP:  36; 6HR MAX TEMP:  73; 6HR PCP: TRACE;

SHERIDAN       MOSUNNY   77  36  22 CALM      29.72F
6HR MIN TEMP:  37; 6HR MAX TEMP:  77;

BUFFALO        SUNNY     75  32  20 SW14G28   29.81F
6HR MIN TEMP:  52; 6HR MAX TEMP:  75; 6HR PCP: TRACE;

GILLETTE       SUNNY     73  38  27 SW22G30   29.78F
6HR MIN TEMP:  58; 6HR MAX TEMP:  74;

HULETT         FAIR      72  39  30 SW20G35   29.80
NEWCASTLE      FAIR      70  36  28 MISG      29.87

$$
WYZ014>020-022>026-101>103-211900-
CENTRAL WYOMING

CITY           SKY/WX    TMP DP  RH WIND       PRES   REMARKS
BIG PINEY      MOSUNNY   53  39  59 E7        30.00F
6HR MIN TEMP:  30; 6HR MAX TEMP:  54; 6HR PCP:  0.01;

PINEDALE       MOCLDY    52  37  58 N5        30.01F
DUBOIS         MOCLDY    50  37  62 N10       29.96S
LANDER         MOSUNNY   68  37  32 S15G24    29.86F
6HR MIN TEMP:  42; 6HR MAX TEMP:  68; 6HR PCP: TRACE;

RIVERTON       MOSUNNY   63  36  36 S6        29.88F
6HR MIN TEMP:  38; 6HR MAX TEMP:  63; 6HR PCP: TRACE;

CASPER         SUNNY     70  38  31 SW24G30   29.91F
6HR MIN TEMP:  51; 6HR MAX TEMP:  70;

DOUGLAS        MOSUNNY   74  39  28 W22G32    29.91F
6HR MIN TEMP:  42; 6HR MAX TEMP:  74;


$$
WYZ021-027>030-104>119-211900-
SOUTHERN WYOMING

CITY           SKY/WX    TMP DP  RH WIND       PRES   REMARKS
EVANSTON       MOSUNNY   54  38  54 W20G33    30.01S
6HR MIN TEMP:  45; 6HR MAX TEMP:  63; 6HR PCP: TRACE;

KEMMERER       LGT RAIN  52  41  66 SW17      30.01F
FORT BRIDGER   MOCLDY    62  34  35 W21G32    30.03F
ROCK SPRINGS   CLOUDY    62  35  36 SW28G33   30.01S
6HR MIN TEMP:  48; 6HR MAX TEMP:  64;

DIXON          CLOUDY    62  40  44 S13       30.10
RAWLINS        MOSUNNY   63  37  38 S26G37    30.02F
6HR MIN TEMP:  41; 6HR MAX TEMP:  63;

SARATOGA       FAIR      57  37  47 S17       30.09S
LARAMIE        MOSUNNY   63  35  35 SW24G30   30.08F
6HR MIN TEMP:  35; 6HR MAX TEMP:  64;

CHEYENNE       PTSUNNY   70  33  25 SW21G26   30.02F
6HR MIN TEMP:  45; 6HR MAX TEMP:  72;

TORRINGTON     PTSUNNY   67  40  37 S8        29.92F
6HR MIN TEMP:  39; 6HR MAX TEMP:  69;

PINE BLUFFS    FAIR      73  36  25 CALM      29.98F

$$



USA.gov is the U.S. government's official web portal to all federal, state and local government web resources and services.